This is the latest recevied weather packets stored in our database for station/object R6HABA-13. If no packets are shown the sender has not sent any weather packets the latest 10 day(s).
| Time | Temp. | Humidity | Pressure | Rain* | Wind** | Luminosity | Snow |
|---|---|---|---|---|---|---|---|
| 1777532403 | 3.89° C | 56% | 1023 hPa | - | 2.24 m/s, 350° | - | - |
| 1777531503 | 3.89° C | 56% | 1023 hPa | - | 2.24 m/s, 350° | - | - |
| 1777530603 | 4.44° C | 56% | 1023 hPa | - | 2.68 m/s, 350° | - | - |
| 1777529833 | -17.78° C | 65% | 1023 hPa | - | 2.24 m/s, 348° | - | - |
| 1777529064 | -17.78° C | 69% | 1023 hPa | - | 1.79 m/s, 0° | - | - |
| 1777527903 | 2.22° C | 69% | 1023 hPa | - | 1.79 m/s, 343° | - | - |
| 1777527004 | 2.22° C | 69% | 1023 hPa | - | 1.79 m/s, 343° | - | - |
| 1777526104 | 2.22° C | 69% | 1024 hPa | - | 1.79 m/s, 343° | - | - |
| 1777525203 | 2.22° C | 69% | 1024 hPa | - | 1.79 m/s, 343° | - | - |
| 1777524303 | 2.22° C | 69% | 1024 hPa | - | 1.79 m/s, 343° | - | - |
| 1777523403 | -1.11° C | 90% | 1024 hPa | - | 1.34 m/s, 351° | - | - |
| 1777522502 | -1.11° C | 90% | 1023 hPa | - | 1.34 m/s, 351° | - | - |
| 1777521603 | -1.11° C | 90% | 1024 hPa | - | 1.34 m/s, 351° | - | - |
| 1777520703 | -1.11° C | 90% | 1024 hPa | - | 1.34 m/s, 351° | - | - |
| 1777519803 | -1.11° C | 90% | 1024 hPa | - | 1.34 m/s, 351° | - | - |
| 1777518904 | -1.11° C | 90% | 1023 hPa | - | 1.34 m/s, 351° | - | - |
| 1777518003 | -1.11° C | 90% | 1023 hPa | - | 1.34 m/s, 351° | - | - |
| 1777517102 | -1.11° C | 90% | 1023 hPa | - | 1.34 m/s, 351° | - | - |
| 1777516203 | -1.11° C | 90% | 1023 hPa | - | 1.34 m/s, 351° | - | - |
| 1777515303 | -1.11° C | 90% | 1023 hPa | - | 1.34 m/s, 351° | - | - |
| 1777514403 | -1.11° C | 90% | 1023 hPa | - | 1.34 m/s, 351° | - | - |
| 1777513503 | -1.11° C | 90% | 1023 hPa | - | 1.34 m/s, 351° | - | - |
| 1777513255 | -17.78° C | - | 0 hPa | - | 0 m/s | - | - |
| 1777511703 | -2.22° C | 92% | 1023 hPa | - | 1.34 m/s, 330° | - | - |
| 1777510803 | -2.22° C | 92% | 1023 hPa | - | 1.34 m/s, 330° | - | - |
* Rain since midnight (hover to see other rain measurements)
** Current wind speed in m/s (hover to see current wind gust speed)